Wind_Speed
21 20 20 21 20 19 21 23 25 26 28 30 30 31 30 29 29 27 25 26 26 26 26 26 28 28 29 27 27 26 26 26 26 25 25 25 25 25 24 24 24 24 24 24
22 21 21 22 22 21 22 24 26 28 29 29 30 31 31 30 29 29 26 26 27 27 26 27 27 28 27 26 26 25 25 25 25 25 25 24 24 24 24 24 24 24 24 24
22 21 22 24 23 22 23 24 25 27 28 29 31 32 31 31 30 30 27 27 28 28 26 26 27 26 26 25 25 24 24 24 24 24 24 24 24 23 23 24 24 24 24 24
22 22 22 23 22 23 24 25 26 27 28 29 31 31 31 30 29 29 29 27 28 28 27 27 26 26 25 25 24 24 24 24 24 24 23 23 23 23 23 23 23 24 23 23
23 23 24 24 23 23 25 27 27 27 28 28 29 29 29 30 28 28 27 28 27 27 27 27 26 26 26 26 25 25 24 25 24 24 23 23 22 23 23 22 22 23 23 23
23 23 25 25 25 25 26 28 27 28 28 28 28 28 27 27 27 26 26 25 26 27 27 27 27 26 25 25 25 25 24 24 24 23 23 22 22 21 22 22 22 23 23 23
23 24 24 25 25 25 26 27 28 28 28 28 27 27 26 25 25 25 25 24 25 26 26 26 26 25 24 24 23 24 24 23 23 22 22 22 22 22 22 22 23 23 22 22
24 25 25 25 26 26 27 28 28 27 26 26 26 27 26 24 23 24 25 24 24 24 25 25 24 23 23 22 22 22 22 22 22 22 22 22 22 22 21 21 21 21 21 22
25 25 25 25 26 27 27 27 26 25 24 24 25 25 25 24 24 23 24 24 24 24 23 23 22 21 20 21 21 21 21 21 21 22 22 22 21 22 22 21 21 21 21 22
27 27 27 27 27 25 25 26 26 25 24 24 24 24 24 23 24 24 24 24 24 22 22 21 20 19 19 19 20 20 20 20 21 21 21 21 21 21 21 21 21 20 21 21
27 28 28 27 27 27 27 27 26 25 24 24 23 23 23 23 23 23 22 22 22 21 20 20 20 19 19 19 19 19 20 20 21 21 21 21 21 21 21 22 22 21 21 21
28 28 28 28 27 28 27 27 26 25 25 24 23 22 22 22 22 22 21 21 20 20 20 20 20 19 19 19 19 19 19 20 20 21 21 21 21 21 21 23 23 22 23 23
29 29 29 28 28 28 27 26 25 24 24 23 22 22 22 22 22 22 21 21 20 20 20 20 19 18 18 18 19 19 20 20 20 21 21 22 22 23 23 24 23 23 23 23
27 27 27 28 27 26 26 26 25 24 24 23 21 21 22 21 22 21 21 20 20 20 19 19 19 18 18 18 19 20 20 20 20 20 20 21 22 23 23 23 23 22 22 23
27 27 27 27 26 26 26 26 25 25 24 23 22 22 21 21 21 21 21 21 21 20 20 19 19 19 19 19 19 20 20 21 21 22 21 21 21 22 22 22 21 22 22 23
25 26 26 26 25 25 25 25 25 25 25 24 24 23 22 21 21 21 22 22 21 20 20 20 19 20 20 20 20 20 21 22 23 23 22 22 22 22 22 22 22 22 22 23
24 24 24 24 24 24 24 24 24 25 25 24 23 23 23 23 23 22 22 22 21 21 21 21 20 20 21 21 21 21 21 21 22 22 23 23 23 23 22 22 22 23 23 23
23 23 23 23 22 23 23 23 23 23 23 23 23 23 22 23 23 23 22 22 22 22 22 21 21 21 21 22 22 22 22 22 22 22 23 23 24 24 24 24 24 24 24 24
21 21 21 21 21 21 22 22 22 22 22 23 23 22 22 22 23 23 23 23 23 23 23 23 22 22 22 22 22 22 22 22 22 23 23 22 22 23 24 24 24 24 24 25
20 20 20 21 21 21 21 21 21 21 21 22 22 22 22 22 22 23 23 23 23 23 23 23 23 23 22 22 22 22 22 23 23 23 22 22 23 23 24 24 24 24 24 25
19 20 20 20 20 20 20 21 21 20 20 21 21 21 21 21 21 21 21 21 21 22 22 22 22 22 22 22 22 22 22 23 23 23 23 23 23 24 23 23 23 23 24 25
18 18 19 19 19 19 19 20 20 20 20 20 20 20 20 20 21 21 20 20 20 20 21 21 21 21 22 22 22 22 22 22 22 23 23 22 23 23 23 23 23 23 23 24
17 17 18 18 19 19 18 18 18 18 18 18 18 18 19 19 20 20 19 19 19 20 20 20 21 21 21 21 21 22 22 23 23 23 23 23 23 23 24 24 24 24 24 24
17 17 17 17 17 16 16 16 16 17 17 17 17 17 18 18 18 18 18 18 19 19 20 20 21 21 20 21 21 22 22 22 23 23 24 24 24 24 24 24 24 24 25 25
16 15 15 15 15 15 15 15 15 15 15 15 15 15 15 16 17 17 18 18 19 20 20 21 21 22 22 22 22 22 22 23 23 23 24 24 25 25 25 25 25 24 24 24
15 14 14 14 14 14 14 14 14 14 14 14 14 15 16 16 16 17 18 18 19 19 20 20 21 21 21 21 21 21 22 22 23 23 23 24 24 25 25 25 25 24 24 24
13 13 13 13 13 13 13 14 14 13 14 14 15 15 16 16 16 16 17 18 18 19 20 20 21 21 21 21 21 21 21 22 22 23 23 23 23 24 24 24 24 23 23 24
Wind_Direction
256 256 261 263 262 262 262 262 262 264 266 269 275 278 279 280 283 281 279 279 279 277 276 275 274 273 271 269 269 269 268 268 268 267 269 270 272 272 273 270 269 270 271 271
261 261 259 263 264 264 263 264 265 268 270 270 274 278 279 279 280 281 278 278 278 279 278 275 273 273 272 270 269 267 267 267 266 266 267 268 270 271 271 271 270 271 271 269
261 261 262 261 263 265 266 266 267 268 271 272 273 275 277 279 280 279 279 277 277 276 277 276 275 274 273 273 270 268 266 265 265 266 266 267 269 270 271 271 271 271 272 271
264 263 260 264 264 264 267 269 271 270 271 273 274 275 277 278 279 281 279 279 276 275 275 275 274 274 275 273 271 268 265 264 264 264 265 267 268 268 269 270 270 270 270 270
263 264 264 264 266 270 273 273 275 275 274 275 275 278 279 278 279 280 280 280 279 277 276 276 275 275 274 273 272 270 266 264 263 263 264 265 267 269 269 268 270 270 269 270
265 265 264 267 270 272 273 275 277 279 278 277 277 277 279 279 279 280 280 280 280 279 278 278 276 273 272 271 270 269 267 265 264 264 264 264 265 268 270 270 270 270 271 271
265 266 267 269 270 272 272 273 277 279 279 278 278 278 280 280 279 278 279 280 282 282 279 278 277 274 272 271 268 267 265 264 264 264 263 264 265 267 269 270 270 271 272 273
266 268 268 270 270 270 272 274 279 280 280 278 277 278 279 280 279 278 278 281 282 283 281 279 278 275 274 271 268 265 263 262 263 264 264 264 265 268 270 271 271 270 271 273
266 267 270 270 269 270 272 275 278 279 280 278 277 278 278 278 277 276 277 280 282 282 281 280 277 275 273 270 268 265 262 261 263 262 264 265 267 267 267 270 271 270 271 273
264 267 269 272 273 274 276 278 279 279 279 278 278 277 277 276 276 276 276 277 280 282 280 279 276 273 272 271 270 266 261 260 261 263 265 267 266 268 269 273 272 272 274 275
265 266 269 271 274 276 277 278 277 276 278 278 277 277 276 276 276 276 276 278 279 279 281 277 275 274 272 271 269 266 263 262 262 263 265 267 269 269 272 276 275 274 274 276
264 266 270 272 274 276 277 279 279 278 278 278 277 275 274 274 275 275 274 275 275 275 277 278 276 274 272 268 267 266 264 263 264 263 265 266 268 271 274 277 275 273 273 275
267 269 271 273 273 272 274 276 277 278 278 278 278 275 274 274 275 274 272 272 273 274 274 275 274 272 269 267 266 266 266 265 265 265 265 265 268 270 272 273 272 273 273 276
267 271 273 274 274 270 271 272 273 275 277 277 276 275 275 273 273 271 271 271 272 273 275 275 272 270 267 266 265 265 264 266 267 268 268 268 269 271 273 273 273 274 276 278
267 269 271 272 273 272 271 272 272 273 275 276 276 275 274 272 271 271 271 270 271 273 274 274 271 269 267 266 266 266 264 265 268 270 271 272 274 273 273 274 274 275 278 280
269 270 271 272 272 271 271 271 271 271 272 274 275 274 273 271 271 270 270 269 270 272 273 272 270 269 268 268 268 267 266 266 267 270 271 272 276 276 275 276 276 278 280 281
268 269 270 271 271 271 270 269 270 270 271 272 274 273 270 269 269 269 270 270 271 271 270 271 271 271 270 268 269 269 268 268 268 269 270 271 275 277 278 279 280 281 282 282
268 267 268 269 271 271 270 270 270 271 272 271 270 270 271 269 268 269 270 271 271 272 271 272 272 271 272 271 269 270 271 270 270 271 271 272 274 276 278 280 280 281 282 284
269 268 268 271 271 272 271 270 270 271 271 271 271 271 270 270 270 269 270 270 269 270 271 273 274 273 272 272 271 270 271 272 272 272 272 273 274 276 279 281 281 280 281 283
268 268 269 272 273 274 272 269 269 270 271 270 270 271 271 270 271 271 271 271 270 269 270 271 272 272 272 272 271 270 269 270 272 273 275 276 277 278 280 282 282 282 282 283
270 270 270 272 275 275 272 269 269 270 272 272 272 273 273 272 272 272 272 272 272 271 270 270 269 270 272 271 271 271 271 271 272 274 275 277 278 279 281 283 284 283 283 283
274 274 272 274 274 274 273 271 271 272 274 274 274 273 272 272 272 273 273 272 273 273 271 270 270 271 272 271 271 271 271 272 273 274 276 277 278 278 279 280 281 282 285 286
278 277 275 273 273 273 273 273 273 273 274 274 273 273 273 273 273 274 274 274 274 274 273 272 272 271 271 271 271 272 273 272 273 275 276 276 277 278 279 278 279 281 284 286
282 278 276 275 275 274 271 271 272 274 275 276 276 276 276 276 276 276 275 275 275 275 275 274 274 273 272 272 273 272 272 272 272 274 275 276 276 276 277 277 278 280 283 284
283 281 281 280 278 276 273 272 272 273 275 276 277 278 279 280 280 280 279 277 276 277 276 276 275 275 275 275 275 274 272 273 274 275 277 277 278 277 278 278 278 279 282 283
284 283 282 279 277 275 273 272 274 275 276 276 278 282 283 283 283 283 281 280 280 280 279 278 278 277 276 276 276 276 274 273 274 275 277 279 280 279 278 278 279 280 282 283
285 283 282 281 278 275 274 273 276 278 279 281 285 285 286 286 286 286 286 286 285 282 281 281 281 279 277 276 276 275 274 275 276 276 276 278 281 281 280 279 279 280 282 282
Height
5801 5802 5802 5801 5801 5802 5803 5802 5802 5801 5800 5799 5797 5796 5794 5793 5791 5789 5789 5789 5787 5786 5786 5785 5785 5784 5784 5784 5785 5785 5785 5786 5787 5788 5788 5789 5789 5789 5790 5790 5791 5791 5791 5792
5795 5796 5796 5796 5796 5795 5796 5796 5796 5795 5794 5792 5790 5788 5787 5786 5785 5783 5782 5782 5781 5779 5779 5779 5778 5777 5777 5777 5778 5778 5779 5779 5780 5781 5782 5782 5783 5783 5783 5784 5784 5784 5785 5785
5789 5789 5789 5789 5791 5790 5790 5788 5788 5787 5787 5785 5783 5781 5780 5779 5778 5777 5775 5774 5773 5773 5772 5771 5771 5771 5770 5770 5770 5771 5771 5772 5773 5774 5775 5775 5776 5776 5777 5777 5778 5778 5778 5779
5782 5783 5783 5785 5784 5784 5783 5781 5781 5779 5778 5777 5776 5774 5773 5772 5771 5770 5769 5767 5766 5766 5765 5764 5764 5764 5763 5763 5763 5764 5764 5765 5766 5767 5768 5769 5769 5770 5770 5770 5771 5771 5772 5772
5776 5776 5776 5777 5777 5777 5776 5774 5773 5772 5771 5769 5768 5767 5766 5765 5764 5762 5761 5760 5759 5758 5757 5757 5756 5756 5756 5756 5756 5756 5757 5758 5759 5760 5761 5762 5763 5763 5764 5764 5765 5765 5765 5765
5769 5770 5770 5771 5770 5769 5769 5767 5766 5764 5763 5762 5761 5761 5760 5758 5757 5756 5755 5753 5752 5751 5750 5749 5748 5748 5748 5748 5749 5750 5750 5751 5752 5754 5755 5756 5757 5757 5758 5758 5758 5758 5759 5759
5762 5762 5762 5763 5762 5763 5762 5761 5758 5757 5756 5755 5754 5753 5753 5752 5750 5749 5748 5747 5745 5744 5742 5741 5740 5739 5740 5741 5742 5743 5744 5745 5746 5747 5749 5750 5751 5752 5752 5752 5752 5752 5752 5752
5756 5756 5758 5755 5755 5755 5754 5752 5750 5749 5749 5748 5746 5746 5745 5745 5744 5743 5742 5740 5739 5737 5735 5734 5732 5732 5732 5734 5735 5736 5737 5739 5740 5741 5742 5743 5744 5745 5746 5746 5746 5746 5746 5745
5750 5751 5750 5748 5746 5746 5745 5744 5743 5742 5742 5741 5740 5739 5738 5738 5737 5736 5735 5734 5733 5731 5729 5728 5727 5727 5727 5728 5729 5729 5731 5732 5734 5735 5736 5737 5738 5739 5740 5740 5739 5739 5739 5739
5743 5742 5742 5741 5739 5738 5737 5736 5736 5736 5735 5734 5733 5732 5732 5731 5730 5730 5729 5728 5727 5725 5724 5723 5723 5722 5723 5723 5723 5724 5725 5726 5728 5729 5730 5731 5732 5733 5733 5733 5733 5733 5733 5733
5735 5735 5734 5733 5732 5731 5731 5730 5729 5729 5728 5727 5726 5725 5725 5725 5724 5724 5723 5722 5721 5720 5720 5719 5718 5718 5718 5718 5718 5719 5720 5721 5723 5724 5725 5725 5726 5727 5727 5728 5727 5727 5727 5726
5728 5727 5726 5725 5725 5724 5723 5723 5722 5722 5721 5720 5719 5719 5719 5718 5718 5718 5717 5716 5716 5715 5714 5714 5714 5713 5713 5713 5713 5714 5715 5716 5717 5718 5719 5719 5720 5721 5721 5721 5721 5720 5720 5720
5720 5718 5718 5717 5717 5717 5716 5716 5715 5715 5714 5714 5713 5712 5712 5712 5712 5711 5711 5711 5711 5710 5710 5709 5709 5709 5708 5708 5709 5709 5710 5711 5711 5712 5713 5713 5714 5714 5715 5715 5714 5714 5713 5713
5711 5711 5711 5711 5710 5709 5709 5709 5709 5708 5708 5707 5707 5706 5706 5706 5706 5705 5705 5705 5705 5705 5704 5704 5704 5704 5704 5704 5704 5704 5705 5705 5706 5706 5707 5707 5708 5708 5708 5707 5707 5707 5707 5707
5704 5704 5703 5703 5703 5702 5702 5702 5702 5702 5701 5701 5701 5700 5700 5700 5699 5699 5699 5699 5699 5699 5699 5699 5699 5699 5699 5699 5699 5699 5699 5700 5700 5701 5701 5701 5701 5701 5701 5701 5701 5701 5700 5700
5696 5696 5695 5695 5695 5695 5695 5695 5695 5695 5694 5694 5694 5693 5693 5693 5693 5693 5693 5693 5693 5693 5693 5693 5693 5693 5693 5693 5693 5693 5693 5694 5694 5694 5695 5695 5695 5695 5694 5694 5694 5694 5694 5693
5689 5689 5688 5688 5688 5688 5687 5687 5687 5687 5687 5687 5687 5686 5686 5686 5686 5687 5687 5687 5687 5687 5687 5687 5687 5687 5687 5687 5687 5687 5687 5688 5688 5688 5688 5688 5688 5688 5688 5687 5687 5687 5686 5685
5681 5681 5681 5681 5681 5681 5680 5680 5680 5680 5679 5679 5679 5679 5680 5680 5680 5680 5680 5680 5680 5681 5680 5680 5680 5680 5681 5681 5681 5681 5681 5681 5681 5681 5681 5681 5682 5681 5681 5681 5680 5679 5679 5678
5674 5674 5674 5674 5674 5674 5674 5673 5673 5673 5672 5672 5672 5672 5673 5673 5673 5673 5673 5673 5674 5674 5674 5674 5674 5674 5674 5674 5674 5674 5674 5674 5674 5675 5674 5674 5674 5674 5674 5673 5672 5672 5671 5670
5668 5668 5668 5668 5667 5667 5667 5667 5667 5667 5666 5666 5666 5666 5666 5666 5666 5666 5666 5666 5666 5666 5667 5667 5667 5667 5667 5667 5667 5667 5668 5667 5667 5668 5667 5667 5667 5667 5666 5666 5665 5664 5664 5663
5663 5662 5662 5662 5661 5661 5661 5661 5660 5660 5660 5660 5659 5659 5659 5659 5659 5658 5658 5659 5659 5659 5659 5660 5660 5660 5660 5660 5660 5660 5660 5660 5660 5660 5660 5660 5660 5660 5659 5659 5658 5657 5656 5655
5657 5656 5656 5656 5655 5654 5654 5654 5654 5654 5654 5653 5653 5652 5652 5652 5652 5652 5652 5652 5652 5652 5652 5652 5652 5653 5653 5653 5653 5653 5653 5653 5653 5653 5653 5653 5653 5652 5652 5652 5651 5650 5649 5648
5652 5651 5651 5650 5649 5649 5648 5648 5648 5648 5648 5647 5647 5646 5646 5646 5645 5645 5645 5645 5645 5645 5645 5645 5645 5645 5645 5645 5645 5646 5646 5646 5646 5646 5646 5646 5646 5645 5645 5644 5644 5643 5642 5641
5646 5646 5645 5644 5644 5643 5643 5643 5643 5642 5642 5642 5641 5641 5640 5640 5639 5639 5638 5639 5639 5638 5638 5638 5638 5638 5638 5638 5638 5638 5638 5638 5638 5638 5638 5638 5638 5638 5637 5637 5636 5636 5635 5634
5641 5641 5640 5639 5639 5638 5638 5638 5637 5637 5637 5636 5636 5635 5635 5634 5634 5633 5633 5633 5632 5632 5632 5632 5631 5631 5631 5631 5631 5631 5631 5631 5631 5631 5630 5630 5630 5629 5629 5629 5628 5628 5627 5627
5636 5636 5635 5634 5634 5634 5633 5633 5633 5632 5632 5632 5631 5631 5630 5629 5628 5628 5627 5626 5626 5625 5625 5625 5625 5624 5624 5624 5624 5623 5623 5623 5623 5623 5622 5622 5621 5621 5621 5621 5621 5620 5619 5619
5631 5631 5630 5630 5629 5629 5629 5629 5628 5628 5627 5627 5627 5626 5625 5624 5623 5622 5622 5621 5620 5619 5619 5618 5618 5617 5617 5617 5616 5616 5616 5615 5615 5615 5615 5614 5614 5613 5613 5613 5612 5612 5611 5611